Showing default

SES 14, 43175

Orbit data source: Space-Track

SES 14, 43175 is a payload satellite owned by SES (LU) in GEO that was launched on Thu, 25 Jan 2018 UTC via an ARIANE 5ECA launch vehicle from the French Guiana (FRGUI). Payload-class satellites include a variety of spacecraft equipped with specific instruments for various scientific and technological missions. These include communications satellites like Starlink; space stations such as the ISS; scientific satellites like the Hubble; Earth observation satellites from companies like Planet Labs, Umbra, and HawkEye 360; GPS; miniature CubeSats for education and research; and military/defense satellites.

Loading next visibility...
Identifier
43175, 2018-012B
Orbit
GEO
Last TLE update
1 day ago
Origin
Manufacturer
Airbus/Toulouse
Mission
Operational Commercial Communications
Bus & Motor
EUROSTAR 3000E, EOR
Mass
4,423 kg wet, ~2,800 kg dry
Launch date (UTC)
2018-01-25 (7 years ago)
Launch vehicle
ARIANE 5ECA
Launch site
French Guiana (FRGUI)
Object type
Payload
Rocket body
Debris
Shape & HBR
Box + 2 Pan, 39.3 m
Radar Cross Section
49.877 m², Large (>1 m²)

Expand to show TLE details & history

TLE from 1 day ago
0 SES 14
1 43175U 18012B   25189.41075958 -.00000262  00000-0  00000-0 0  9997
2 43175   0.0111   8.7525 0001314  92.6567 285.5758  1.00271636  3577
Epoch: 2025-07-08T09:51Z
TLE epoch observation values (Epoch: 2025-07-08T09:51:29.627Z)
Latitude
0.00877°
Longitude
-47.5076°
Altitude
35,784.631 km
Speed
3.075 km/s
True Right ascension
01h 47m 53s
True Declination
0° 00' 32"
Sunlit
Object was in daylight at epoch
Visualization orbit readout
Latitude
0.03146°
Longitude
-2.29062°
Altitude
35,781.382 km
Speed
3.075 km/s
Apparent Right ascension
05h 12m 38s
Apparent Declination
-5° 48' 51"
Sunlit
Object is in daylight
Visualization observer readout
Local Sidereal Time
00:58:17
Azimuth
112.09° ESE
Elevation
15.925°
Doppler factor
1
Orbital elements
Apogee altitude
35,793.248 km
Perigee altitude
35,782.167 km
Semi-major axis
42,165.844 km
Eccentricity
0.00013
Inclination
0.0111°
RAAN
8.7525°
Arg. of periapsis
92.6567°
True anomaly
Unknown
Mean anomaly
285.5758°
Eccentric anomaly
Unknown
Mean motion
0.25067 °/min
Orbital period
1,436.15 mins
BSTAR
0
Loading historical data...
43175 neighbors
Loading maneuver chart data...
Loading SW <> Apogee altitude chart data...
Loading historical data...
Loading historical data...
Loading historical data...
Loading historical data...
Loading historical data...
Loading historical data...
Loading historical data...
Other satellites on launch #12 in the year 2018 (2018-01-25 UTC)

SES 14 Visibility forecast

Observer location: undefined°, undefined°

Span
Click to sort rows by Start time (UTC) header in descending order
Start Az.
Max El. time (UTC)
Max El. Az.
Max El.
End time (UTC)
End Az.
1440 mins2025-07-09 12:47:54.487Z112.104° ESE2025-07-10 12:47:54.487Z112.106° ESE15.337°2025-07-10 12:47:54.487Z112.106° ESE
|